Regional Weather Roundup
Issued by NWS Green Bay, WI

Home | Current Version | Previous Version | Text Only | Print | Product List | Glossary On
Versions: 1 2 3 4 5 6 7 8 9 10 11 12 13 14 15 16 17 18 19 20 21 22 23 24 25 26 27 28 29 30 31 32 33 34 35 36 37 38 39 40 41 42 43 44 45 46 47 48 49 50
000
ASUS43 KGRB 280811
RWRGRB

NORTH-CENTRAL AND NORTHEAST WISCONSIN REGIONAL WEATHER ROUNDUP
NATIONAL WEATHER SERVICE GREEN BAY WI
300 AM CDT SAT MAY 28 2016

WIZ005-009-010>012-018-019-280900-
NORTH CENTRAL WISCONSIN

CITY           SKY/WX    TMP DP  RH WIND       PRES   REMARKS
IRONWOOD       CLOUDY    61  59  94 CALM      29.74S
MANITOWISH WTR NOT AVBL
ARBOR VITAE    LGT RAIN  65  64  94 S3        29.78S
EAGLE RIVER    DRIZZLE   64  64 100 SE5       29.79S
LAND O LAKES   CLOUDY    64  63  96 SE6       29.80F
RHINELANDER    CLOUDY    65  64  97 SE5       29.79F
PHILLIPS       CLOUDY    65  64  99 SE5       29.76F
ANTIGO         CLOUDY    64  64 100 SE6       29.79F FOG
TOMAHAWK       CLOUDY    64  63  95 CALM      29.78F FOG
MERRILL        CLOUDY    66  66 100 CALM      29.78F FOG
$$

WIZ013-073-280900-
NORTHEAST WISCONSIN

CITY           SKY/WX    TMP DP  RH WIND       PRES   REMARKS
IRON MOUNTAIN  FOG       62  61  96 SE5       29.80F VSB 1/2
MARINETTE      CLOUDY    61  61 100 SE3       29.80F FOG
OCONTO         CLOUDY   N/A N/A N/A CALM      29.79S
$$

WIZ017-030-035>037-045-280900-
CENTRAL WISCONSIN

CITY           SKY/WX    TMP DP  RH WIND       PRES   REMARKS
MEDFORD        CLOUDY    65  65 100 CALM      29.76S
WAUSAU         CLOUDY    68  66  93 S6        29.76R
MOSINEE        CLOUDY    64  64 100 S6        29.79R FOG
MARSHFIELD     CLOUDY    68  65  90 S6        29.76R FOG
WISC RAPIDS    CLOUDY    67  64  90 CALM      29.77S
STEVENS POINT  CLOUDY    65  65  99 SE5       29.78R FOG
WAUPACA        CLOUDY    69  69 100 SE3       29.78S FOG
SHAWANO        CLOUDY    66  65  94 CALM      29.79S FOG
CLINTONVILLE   CLOUDY    64  64 100 CALM      29.78S FOG
WAUTOMA        CLOUDY    68  67  96 S6        29.79R
$$

WIZ038-039-048-051-280900-
FOX VALLEY

CITY           SKY/WX    TMP DP  RH WIND       PRES   REMARKS
NWS GREEN BAY  CLOUDY    67  65  93 S7        29.79F
APPLETON       CLOUDY    66  66 100 S8        29.78S FOG
OSHKOSH        MOCLDY    68  65  90 S14       29.79S
FOND DU LAC    CLOUDY    70  66  87 S13       29.81R
$$

WIZ022-050-052-280900-
EAST CENTRAL WISCONSIN

CITY           SKY/WX    TMP DP  RH WIND       PRES   REMARKS
EPHRAIM        CLOUDY    56  56 100 S8        29.81F FOG
STURGEON BAY   NOT AVBL
MANITOWOC      LGT RAIN  59  58  96 S6        29.83S FOG
SHEBOYGAN      CLOUDY    63  60  90 S8        29.83R
$$

LMZ563-521-522-541>543-280900-
LAKESHORE

STATION/POSITION TIME  TEMP    WIND        PRES    VSBY  WAVE
                       AIR SEA DIR/SP/G                  HT/PER
                 (UTC) (F)     (DEG/KT/KT) (MB)    (MI)  (FT/S)
SHEBOYGAN LKSHOR 0800   58     180/ 18/ 20 1010.4R
KEWAUNEE LKSHORE 0700   53     170/  6/  9 1009.2F
ALGOMA MARINA    0732             CALM       N/A
NORTHPORT PIER   0700   60     150/  9/ 15 1010.2F
N MID LAKE BUOY  0750   54 46  170/ 12/ 14 1010.3F         1
SISTER BAY LKSHO 0705   59     150/ 12/ 17   N/A
CHAMBERS ISLAND  0740   61     150/  3/  7 1009.5F
MENOMINEE LKSHOR 0700   60     140/  8/  8 1008.3F
$$




USA.gov is the U.S. government's official web portal to all federal, state and local government web resources and services.